Location: La Brionne
(46.1728°N, 1.7849°E)
Time: 06:46:02
(UTC+00:00)

ALOS 2 - Pass Details

Date: 16 June 2021
Orbit: 630 x 632 km, 97.9° (Epoch: 31 July)

Event Time Altitude Azimuth Distance (km) Brightness Sun altitude
Exits shadow 22:11:55 15° 102° (ESE) 1,704 4.5 -16.7°
Maximum altitude 22:14:07 21° 64° (ENE) 1,410 4.4 -16.9°
Drops below altitude 10° 22:17:27 10° 15° (NNE) 2,025 6.0 -17.1°
Sets 22:20:03 0° 360° (N) 2,938 7.3 -17.3°
